Date_and_time,latitude,longitude,wind_speed,RelWindDirFrom,WindDirFrom,air_pressure,air_temperature,relative_humidity,Temp,platform_speed_wrt_ground,air_pressure_at_mean_sea_level,platform_orientation
2019-01-06 23:40,50.6304566666667,-96.9807583333333,15.2,19.1,114,983.06,-6.8,92,0.71,0.0,1011.52,90.0
2019-01-06 23:50,50.63046,-96.9807583333333,14.8,17.8,114,982.84,-6.7,93,0.71,0.0,1011.29,90.0
2019-01-07 00:00,50.63046,-96.9807583333333,13.8,16.6,114,982.61,-6.7,93,0.71,0.0,1011.06,167.4
2019-01-07 00:10,50.63046,-96.98076,15.2,17.7,113,982.35,-6.7,93,0.71,0.0,1010.79,167.4
2019-01-07 00:20,50.63046,-96.9807583333333,15.4,19.2,114,982.11,-6.7,93,0.71,0.0,1010.54,167.4
2019-01-07 00:30,50.63045,-96.980765,14.6,17.6,114,981.95,-6.6,94,0.71,0.0,1010.38,167.4
2019-01-07 00:40,50.6304566666667,-96.98076,14.0,16.3,116,981.79,-6.6,94,0.71,0.0,1010.21,167.4
2019-01-07 00:50,50.630455,-96.9807633333333,11.9,14.3,115,981.64,-6.5,96,0.70,0.0,1010.05,167.4
2019-01-07 01:00,50.63046,-96.9807716666667,11.8,14.5,117,981.46,-6.4,96,0.71,0.0,1009.85,360.0
2019-01-07 01:10,50.63046,-96.9807633333333,12.7,15.8,121,981.26,-6.2,96,0.71,0.0,1009.62,360.0
2019-01-07 01:20,50.6304583333333,-96.9807666666667,14.4,17.4,123,980.97,-6.0,95,0.70,0.0,1009.32,360.0
2019-01-07 01:30,50.6304516666667,-96.9807733333333,14.4,18.4,124,980.74,-5.9,97,0.69,0.0,1009.06,360.0
2019-01-07 01:40,50.6304566666667,-96.9807633333333,16.8,22.2,124,980.40,-5.7,97,0.69,0.0,1008.71,360.0
2019-01-07 01:50,50.6304566666667,-96.9807616666667,19.7,24.1,123,980.01,-5.6,97,0.69,0.0,1008.29,360.0
2019-01-07 02:00,50.6304566666667,-96.98076,21.3,26.0,122,979.61,-5.6,99,0.69,0.0,1007.89,0.0
2019-01-07 02:10,50.6304583333333,-96.9807583333333,20.1,24.5,120,979.29,-5.7,100,0.70,0.0,1007.57,0.0
2019-01-07 02:20,50.6304533333333,-96.9807633333333,20.9,26.5,122,978.97,-5.7,100,0.70,0.0,1007.22,0.0
2019-01-07 02:30,50.6304583333333,-96.98076,19.2,24.7,124,978.78,-5.7,100,0.71,0.0,1007.03,0.0
2019-01-07 02:40,50.6304583333333,-96.98078,16.8,24.1,129,978.81,-5.8,100,0.71,0.0,1007.06,0.0
2019-01-07 02:50,50.63046,-96.9807716666667,18.0,24.4,126,978.52,-5.5,100,0.69,0.0,1006.74,0.0
2019-01-07 03:00,50.63046,-96.9807666666667,20.3,24.9,127,978.14,-5.4,100,0.68,0.0,1006.34,270.0
2019-01-07 03:10,50.6304433333333,-96.9807616666667,19.7,26.0,129,977.85,-5.4,100,0.68,0.0,1006.02,270.0
2019-01-07 03:20,50.63045,-96.9807566666667,19.5,26.6,128,977.59,-5.3,100,0.68,0.0,1005.75,270.0
2019-01-07 03:30,50.6304533333333,-96.980765,20.1,28.2,127,977.28,-5.3,100,0.67,0.0,1005.42,270.0
2019-01-07 03:40,50.6304533333333,-96.980765,20.5,28.1,128,977.02,-5.2,100,0.67,0.0,1005.14,270.0
2019-01-07 03:50,50.63044,-96.9807566666667,21.2,28.0,127,976.74,-5.0,100,0.68,0.0,1004.84,270.0
2019-01-07 04:00,50.630445,-96.9807633333333,20.8,26.6,128,976.50,-5.0,100,0.68,0.0,1004.60,360.0
2019-01-07 04:10,50.63045,-96.9807683333333,21.0,28.4,127,976.20,-4.8,100,0.70,0.0,1004.28,360.0
2019-01-07 04:20,50.6304533333333,-96.9807716666667,20.2,26.9,125,975.86,-4.8,100,0.70,0.0,1003.93,360.0
2019-01-07 04:30,50.630455,-96.9807683333333,19.5,26.7,129,975.70,-4.8,100,0.70,0.0,1003.78,360.0
2019-01-07 04:40,50.630455,-96.9807666666667,19.6,25.2,131,975.58,-5.0,100,0.70,0.0,1003.64,360.0
2019-01-07 04:50,50.630455,-96.9807666666667,19.0,24.6,133,975.50,-5.0,100,0.70,0.0,1003.56,360.0
2019-01-07 05:00,50.6304566666667,-96.9807666666667,19.3,24.6,135,975.38,-5.0,100,0.71,0.0,1003.43,270.0
2019-01-07 05:10,50.6304566666667,-96.9807666666667,18.5,22.4,137,975.23,-5.0,100,0.71,0.0,1003.27,270.0
2019-01-07 05:20,50.6304566666667,-96.98076,17.9,22.6,137,975.06,-4.9,100,0.72,0.0,1003.09,270.0
2019-01-07 05:30,50.6304666666667,-96.9808016666667,17.6,22.2,135,974.83,-4.7,100,0.72,0.0,1002.84,270.0
2019-01-07 05:40,50.6304466666667,-96.9807383333333,17.5,22.6,133,974.61,-4.6,100,0.73,0.0,1002.59,270.0
2019-01-07 05:50,50.6304466666667,-96.9807416666667,17.8,24.3,131,974.32,-4.5,100,0.74,0.0,1002.29,270.0
2019-01-07 06:00,50.6304516666667,-96.9807566666667,16.9,21.4,134,974.14,-4.5,100,0.75,0.0,1002.10,131.7
2019-01-07 06:10,50.6304533333333,-96.9807566666667,17.1,21.4,135,974.02,-4.5,100,0.74,0.0,1001.97,131.7
2019-01-07 06:20,50.6304533333333,-96.9807616666667,15.7,20.4,135,973.94,-4.5,100,0.74,0.0,1001.89,131.7
2019-01-07 06:30,50.630455,-96.9807633333333,15.2,18.7,136,973.81,-4.4,100,0.75,0.0,1001.76,131.7
2019-01-07 06:40,50.630455,-96.980765,15.6,20.0,137,973.66,-4.4,101,0.74,0.0,1001.61,131.7
2019-01-07 06:50,50.6304633333333,-96.9807833333333,15.1,18.2,141,973.48,-4.3,101,0.73,0.0,1001.42,131.7
2019-01-07 07:00,50.6304633333333,-96.9807916666667,15.2,17.6,140,973.32,-4.2,101,0.72,0.0,1001.25,332.3
2019-01-07 07:10,50.6304566666667,-96.98078,15.5,18.7,139,973.06,-4.1,101,0.71,0.0,1000.97,332.3
2019-01-07 07:20,50.63046,-96.980775,15.8,18.5,139,972.87,-4.1,101,0.71,0.0,1000.76,332.3
2019-01-07 07:30,50.6304616666667,-96.9807733333333,15.6,18.9,138,972.72,-4.0,101,0.72,0.0,1000.60,332.3
2019-01-07 07:40,50.63046,-96.98077,15.3,18.4,138,972.61,-4.0,101,0.73,0.0,1000.48,332.3
2019-01-07 07:50,50.63046,-96.98077,14.7,18.4,137,972.47,-4.0,101,0.75,0.0,1000.34,332.3
2019-01-07 08:00,50.6304466666667,-96.9807716666667,14.9,19.0,137,972.34,-4.0,101,0.75,0.0,1000.20,228.3
2019-01-07 08:10,50.630455,-96.9807716666667,15.0,18.4,135,972.25,-3.9,101,0.77,0.0,1000.10,228.3
2019-01-07 08:20,50.63046,-96.9807716666667,14.8,18.3,136,972.12,-3.9,101,0.78,0.0,999.97,228.3
2019-01-07 08:30,50.6304583333333,-96.9807816666667,15.1,18.2,137,972.02,-3.9,101,0.79,0.0,999.86,228.3
2019-01-07 08:40,50.6304633333333,-96.9807816666667,15.3,18.8,136,971.91,-3.9,101,0.80,0.0,999.74,228.3
2019-01-07 08:50,50.6304616666667,-96.9807783333333,14.6,17.6,135,971.79,-3.9,101,0.80,0.0,999.62,228.3
2019-01-07 09:00,50.6304516666667,-96.98078,14.2,17.1,135,971.58,-3.9,101,0.80,0.0,999.40,270.0
2019-01-07 09:10,50.6304316666667,-96.9807683333333,14.1,18.4,133,971.35,-3.8,101,0.81,0.0,999.15,270.0
2019-01-07 09:20,50.6304516666667,-96.9807733333333,13.7,17.7,135,971.13,-3.8,101,0.81,0.0,998.93,270.0
2019-01-07 09:30,50.6304533333333,-96.9807716666667,13.1,16.0,136,970.92,-3.9,101,0.78,0.0,998.72,270.0
2019-01-07 09:40,50.6304566666667,-96.9807716666667,13.1,16.2,137,970.71,-4.0,101,0.76,0.0,998.50,270.0
2019-01-07 09:50,50.6304633333333,-96.98076,12.7,15.5,140,970.54,-4.0,101,0.76,0.0,998.32,270.0
2019-01-07 10:00,50.63046,-96.9807666666667,12.3,14.2,143,970.36,-4.0,101,0.77,0.0,998.14,107.7
2019-01-07 10:10,50.6304583333333,-96.9807916666667,11.9,13.9,145,970.18,-4.0,101,0.77,0.0,997.95,107.7
2019-01-07 10:20,50.63046,-96.980775,12.1,14.2,145,970.00,-3.9,101,0.78,0.0,997.76,107.7
2019-01-07 10:30,50.630465,-96.9807766666667,12.3,15.0,145,969.82,-3.9,101,0.79,0.0,997.57,107.7
2019-01-07 10:40,50.6304433333333,-96.9807766666667,12.4,14.8,148,969.62,-3.9,101,0.79,0.0,997.37,107.7
2019-01-07 10:50,50.63045,-96.98077,12.3,14.1,147,969.46,-3.9,101,0.79,0.0,997.20,107.7
2019-01-07 11:00,50.63046,-96.980755,11.8,15.0,150,969.33,-3.8,101,0.79,0.0,997.07,36.6
2019-01-07 11:10,50.6304566666667,-96.9807616666667,12.2,14.9,149,969.16,-3.8,101,0.80,0.0,996.89,36.6
2019-01-07 11:20,50.63046,-96.9807566666667,12.1,15.0,151,969.00,-3.8,101,0.79,0.0,996.72,36.6
2019-01-07 11:30,50.6304616666667,-96.9807516666667,12.0,15.2,151,968.84,-3.7,101,0.79,0.0,996.57,36.6
2019-01-07 11:40,50.63046,-96.980755,12.4,15.2,150,968.68,-3.7,101,0.77,0.0,996.40,36.6
2019-01-07 11:50,50.63046,-96.9807616666667,11.5,14.3,152,968.64,-3.7,101,0.75,0.0,996.36,36.6
2019-01-07 12:00,50.6304616666667,-96.980765,11.4,14.9,153,968.55,-3.7,101,0.73,0.0,996.26,49.4
2019-01-07 12:10,50.63046,-96.9807666666667,10.7,13.9,156,968.45,-3.7,101,0.72,0.0,996.15,49.4
2019-01-07 12:20,50.6304683333333,-96.9807766666667,10.8,13.5,152,968.16,-3.7,101,0.71,0.0,995.86,49.4
2019-01-07 12:30,50.63046,-96.98077,10.4,13.4,152,967.94,-3.7,101,0.71,0.0,995.63,49.4
2019-01-07 12:40,50.6304583333333,-96.9807683333333,11.2,13.9,150,967.71,-3.7,101,0.70,0.0,995.39,49.4
2019-01-07 12:50,50.6304566666667,-96.9807683333333,10.9,13.4,152,967.62,-3.6,101,0.70,0.0,995.29,49.4
2019-01-07 13:00,50.630455,-96.98077,10.7,13.5,152,967.49,-3.6,101,0.70,0.0,995.16,360.0
2019-01-07 13:10,50.6304583333333,-96.98077,11.3,14.5,153,967.31,-3.6,101,0.71,0.0,994.97,360.0
2019-01-07 13:20,50.6304583333333,-96.98077,10.9,14.2,156,967.20,-3.5,101,0.72,0.0,994.86,360.0
2019-01-07 13:30,50.6304583333333,-96.98077,11.2,13.8,157,967.10,-3.5,101,0.74,0.0,994.75,360.0
2019-01-07 13:40,50.6304566666667,-96.980755,12.1,14.9,160,966.97,-3.4,101,0.75,0.0,994.61,360.0
2019-01-07 13:50,50.6304583333333,-96.98076,12.3,14.9,159,966.87,-3.3,101,0.76,0.0,994.50,360.0
2019-01-07 14:00,50.6304666666667,-96.980785,11.7,14.2,160,966.83,-3.2,101,0.77,0.0,994.46,302.3
2019-01-07 14:10,50.63046,-96.98077,10.2,11.6,162,966.77,-3.2,101,0.77,0.0,994.39,302.3
2019-01-07 14:20,50.630455,-96.98077,9.7,12.0,168,966.66,-3.0,101,0.77,0.0,994.26,302.3
2019-01-07 14:30,50.6304533333333,-96.9807666666667,10.9,14.2,174,966.68,-2.6,102,0.77,0.0,994.27,302.3
2019-01-07 14:40,50.6304533333333,-96.9807666666667,12.6,17.2,177,966.59,-2.4,102,0.78,0.0,994.16,302.3
2019-01-07 14:50,50.6304533333333,-96.9807683333333,12.5,15.5,178,966.58,-2.2,102,0.78,0.0,994.14,302.3
2019-01-07 15:00,50.6304566666667,-96.9807666666667,12.8,15.9,176,966.56,-2.1,102,0.78,0.0,994.12,360.0
2019-01-07 15:10,50.630455,-96.9807683333333,12.1,15.8,175,966.45,-2.1,102,0.78,0.0,993.99,360.0
2019-01-07 15:20,50.630455,-96.9807683333333,10.7,13.1,177,966.43,-2.0,102,0.78,0.0,993.97,360.0
2019-01-07 15:30,50.630455,-96.9807666666667,11.2,14.3,175,966.31,-2.0,102,0.78,0.0,993.84,360.0
2019-01-07 15:40,50.630445,-96.98075,10.4,13.1,175,966.19,-1.9,102,0.78,0.0,993.71,360.0
2019-01-07 15:50,50.6304516666667,-96.9807683333333,10.0,13.0,178,966.03,-1.9,102,0.78,0.0,993.54,360.0
2019-01-07 16:00,50.630455,-96.9807666666667,9.5,11.7,182,966.01,-1.7,102,0.78,0.0,993.51,0.0
2019-01-07 16:10,50.6304566666667,-96.9807683333333,9.8,12.9,191,966.14,-1.5,102,0.78,0.0,993.62,0.0
2019-01-07 16:20,50.6304566666667,-96.9807683333333,10.0,13.0,190,966.04,-1.4,102,0.78,0.0,993.49,0.0
2019-01-07 16:30,50.6304583333333,-96.9807666666667,10.9,16.2,187,965.88,-1.3,102,0.78,0.0,993.30,0.0
2019-01-07 16:40,50.6304583333333,-96.9807683333333,10.8,15.2,190,965.71,-1.2,102,0.77,0.0,993.12,0.0
2019-01-07 16:50,50.6304616666667,-96.9807633333333,9.6,15.4,198,965.55,-1.1,101,0.78,0.0,992.95,0.0
2019-01-07 17:00,50.6304516666667,-96.9807683333333,9.6,13.6,208,965.51,-0.9,101,0.78,0.0,992.90,138.8
2019-01-07 17:10,50.6304516666667,-96.9807616666667,9.3,12.7,205,965.40,-0.7,101,0.78,0.0,992.77,138.8
2019-01-07 17:20,50.6304516666667,-96.980765,8.7,13.4,206,965.24,-0.5,101,0.79,0.0,992.59,138.8
2019-01-07 17:30,50.6304516666667,-96.9807616666667,7.2,10.1,202,964.93,-0.1,100,0.80,0.0,992.25,138.8
2019-01-07 17:40,50.6304516666667,-96.9807616666667,8.4,12.6,206,964.84,-0.0,100,0.80,0.0,992.15,138.8
2019-01-07 17:50,50.63045,-96.9807616666667,7.8,11.2,207,964.55,0.2,99,0.80,0.0,991.83,138.8
2019-01-07 18:00,50.6304516666667,-96.9807616666667,8.1,12.0,208,964.41,0.4,99,0.79,0.0,991.67,90.0
2019-01-07 18:10,50.6304516666667,-96.9807616666667,9.5,12.9,209,964.31,0.6,96,0.78,0.0,991.55,90.0
2019-01-07 18:20,50.6304516666667,-96.9807616666667,9.8,12.7,215,964.18,0.8,86,0.78,0.0,991.41,90.0
2019-01-07 18:30,50.6304433333333,-96.980775,9.7,13.5,217,964.12,0.9,79,0.79,0.0,991.34,90.0
2019-01-07 18:40,50.630445,-96.9807683333333,10.3,15.6,220,964.09,1.0,74,0.79,0.0,991.28,90.0
2019-01-07 18:50,50.63045,-96.98077,9.7,13.9,223,964.04,1.3,68,0.79,0.0,991.21,90.0
2019-01-07 19:00,50.63045,-96.9807683333333,10.0,14.5,224,964.01,1.6,64,0.79,0.0,991.16,90.0
2019-01-07 19:10,50.63045,-96.9807683333333,10.0,13.7,225,963.98,1.8,62,0.79,0.0,991.10,90.0
2019-01-07 19:20,50.6304483333333,-96.9807666666667,12.7,17.6,228,963.95,1.6,61,0.79,0.0,991.07,90.0
2019-01-07 19:30,50.63046,-96.98076,11.8,17.9,233,963.99,1.4,61,0.79,0.0,991.11,90.0
2019-01-07 19:40,50.6304566666667,-96.9807566666667,10.4,16.3,228,964.02,1.3,62,0.78,0.0,991.13,90.0
2019-01-07 19:50,50.630455,-96.9807583333333,11.7,16.0,230,964.06,1.1,62,0.78,0.0,991.18,90.0
2019-01-07 20:00,50.6304533333333,-96.9807633333333,11.4,15.8,229,964.05,1.0,62,0.78,0.0,991.17,90.0
2019-01-07 20:10,50.6304466666667,-96.980775,10.9,14.9,230,964.07,0.8,63,0.78,0.0,991.18,90.0
2019-01-07 20:20,50.6304483333333,-96.98077,11.2,17.1,226,964.11,0.7,63,0.78,0.0,991.23,90.0
2019-01-07 20:30,50.6304516666667,-96.9807683333333,10.4,16.6,224,964.25,0.5,65,0.78,0.0,991.37,90.0
2019-01-07 20:40,50.6304433333333,-96.9807633333333,12.1,16.3,227,964.34,0.4,65,0.78,0.0,991.45,90.0
2019-01-07 20:50,50.6304483333333,-96.980765,11.1,15.7,228,964.47,0.3,67,0.78,0.0,991.57,90.0
2019-01-07 21:00,50.6304516666667,-96.98077,10.4,15.8,233,964.68,0.3,67,0.77,0.0,991.78,270.0
2019-01-07 21:10,50.6304516666667,-96.980775,8.7,12.5,231,964.76,0.3,67,0.76,0.0,991.88,270.0
2019-01-07 21:20,50.6304516666667,-96.980775,8.6,12.5,235,964.78,0.3,67,0.78,0.0,991.91,270.0
2019-01-07 21:30,50.6304533333333,-96.9807766666667,8.1,12.9,227,964.86,0.1,68,0.79,0.0,992.01,270.0
2019-01-07 21:40,50.6304533333333,-96.980775,10.7,14.6,222,964.91,-0.5,72,0.79,0.0,992.10,270.0
2019-01-07 21:50,50.6304533333333,-96.9807733333333,9.3,14.5,227,965.00,-0.6,73,0.79,0.0,992.21,270.0
2019-01-07 22:00,50.6304533333333,-96.9807733333333,9.7,14.6,227,965.17,-0.7,73,0.79,0.0,992.38,270.0
2019-01-07 22:10,50.6304533333333,-96.9807716666667,10.7,15.0,225,965.28,-0.6,75,0.80,0.0,992.50,270.0
2019-01-07 22:20,50.6304533333333,-96.9807716666667,12.1,19.0,224,965.38,-0.7,76,0.79,0.0,992.62,270.0
2019-01-07 22:30,50.6304516666667,-96.98077,11.1,16.2,222,965.42,-0.8,78,0.77,0.0,992.67,270.0
2019-01-07 22:40,50.6304466666667,-96.9807533333333,11.3,16.0,222,965.50,-0.8,78,0.78,0.0,992.76,270.0
2019-01-07 22:50,50.6304483333333,-96.980755,10.5,15.8,226,965.64,-0.8,79,0.78,0.0,992.91,270.0
2019-01-07 23:00,50.6304516666667,-96.9807583333333,10.5,14.7,224,965.73,-0.8,79,0.79,0.0,993.00,90.0
2019-01-07 23:10,50.6304533333333,-96.9807583333333,10.5,15.1,222,965.79,-0.8,80,0.79,0.0,993.06,90.0
2019-01-07 23:20,50.6304516666667,-96.98075,11.4,15.8,220,965.86,-0.8,81,0.79,0.0,993.13,90.0
2019-01-07 23:30,50.630455,-96.9807566666667,11.0,17.3,224,965.99,-0.7,82,0.79,0.0,993.30,90.0
2019-01-07 23:40,50.6304583333333,-96.98076,11.0,15.0,227,966.10,-0.7,85,0.78,0.0,993.42,90.0
2019-01-07 23:50,50.6304583333333,-96.9807583333333,10.4,15.0,236,966.22,-0.8,91,0.78,0.0,993.55,90.0
